Date,TemperatureHighF,TemperatureAvgF,TemperatureLowF,DewpointHighF,DewpointAvgF,DewpointLowF,HumidityHigh,HumidityAvg,HumidityLow,PressureMaxIn,PressureMinIn,WindSpeedMaxMPH,WindSpeedAvgMPH,GustSpeedMaxMPH,PrecipitationSumIn
2013-1-1,47,44,41,46,41,31,96,89,60,30.06,29.93,0,0,57,0.84
2013-1-2,43,38,37,42,34,31,96,83,77,30.15,29.99,1,0,4,0.18
2013-1-3,48,38,35,32,28,22,83,68,46,30.33,30.13,1,0,3,0.00
2013-1-4,51,38,30,27,22,18,66,53,32,30.40,30.31,1,0,6,0.00
2013-1-5,48,39,31,34,25,20,73,58,40,30.36,30.21,4,0,5,0.00
2013-1-6,52,43,38,39,35,28,93,74,54,30.27,30.12,2,0,6,0.04
2013-1-7,53,40,31,32,27,22,71,59,40,30.36,30.26,4,0,8,0.00
2013-1-8,57,44,34,41,34,27,83,67,47,30.36,30.24,0,0,2,0.00
2013-1-9,54,51,49,51,46,40,96,85,71,30.39,30.27,0,0,29,0.10
2013-1-10,61,52,49,55,50,48,96,92,78,30.38,30.07,7,0,8,0.04
2013-1-11,64,61,59,62,59,55,96,92,78,30.11,30.03,57,2,57,0.37
2013-1-12,65,60,57,60,57,55,96,89,78,30.08,29.96,5,0,7,0.26
2013-1-13,67,63,58,62,59,56,96,87,76,30.02,29.92,4,0,9,1.14
2013-1-14,55,43,38,51,41,36,96,92,82,30.22,30.03,3,0,9,2.24
2013-1-15,41,40,38,40,38,37,96,96,96,30.13,29.94,3,0,4,1.98
2013-1-16,45,42,40,44,41,38,96,96,94,30.03,29.90,0,0,29,0.24
2013-1-17,41,39,37,40,35,27,96,83,66,30.28,29.74,7,1,20,0.22
2013-1-18,53,40,33,37,30,26,83,67,42,30.50,30.31,3,0,4,0.06
2013-1-19,56,43,33,36,30,27,91,64,36,30.39,30.17,8,1,9,0.00
2013-1-20,62,49,40,37,31,26,67,51,36,30.18,30.08,0,0,5,0.00
2013-1-21,52,41,33,32,17,-2,78,42,19,30.20,30.07,2,0,8,0.00
2013-1-22,44,32,24,5,-2,-12,35,22,19,30.34,30.19,3,0,6,0.00
2013-1-23,54,41,32,26,11,-5,54,30,19,30.33,30.11,7,0,8,0.00
2013-1-24,50,40,31,38,13,-6,66,36,19,30.33,30.13,6,1,12,0.00
2013-1-25,38,33,32,34,17,-6,87,57,19,30.33,30.08,10,1,11,0.06
2013-1-26,52,41,35,36,33,30,89,74,50,30.28,30.15,0,0,2,0.04
2013-1-27,49,41,33,36,31,27,79,68,53,30.38,30.28,5,0,9,0.00
2013-1-28,60,50,44,46,37,28,75,61,52,30.33,30.19,10,1,12,0.00
2013-1-29,61,52,46,57,48,42,91,85,78,30.20,29.93,0,0,114,0.00
2013-1-30,70,62,44,69,59,35,96,89,72,29.81,29.53,14,2,15,1.49
2013-1-31,50,40,34,28,24,21,66,52,37,30.07,29.85,17,2,17,0.04
2013-2-1,44,33,22,29,7,-5,64,35,19,30.38,30.02,6,1,18,0.00
2013-2-2,37,30,24,32,18,9,82,61,44,30.33,30.06,8,0,8,0.02
2013-2-3,55,42,34,36,28,21,83,61,32,30.12,29.98,8,1,16,0.02
2013-2-4,49,38,31,27,24,20,72,57,40,30.11,29.95,7,1,10,0.00
2013-2-5,65,50,41,42,35,26,74,58,33,30.00,29.91,4,0,8,0.02
2013-2-6,66,50,38,43,35,30,86,60,27,30.17,30.01,0,0,2,0.02
2013-2-7,52,48,46,40,34,30,70,59,51,30.10,29.92,2,0,3,0.00
2013-2-8,57,47,38,48,39,26,92,73,43,30.21,29.89,3,0,7,0.04
2013-2-9,57,44,32,30,26,22,67,51,29,30.30,30.18,6,0,8,0.02
2013-2-10,55,50,45,50,36,22,92,61,27,30.20,29.97,10,1,17,0.63
2013-2-11,55,52,45,54,46,34,96,80,60,30.11,29.98,8,0,8,0.16
2013-2-12,50,45,39,38,33,30,83,63,46,30.12,29.81,2,0,5,0.08
2013-2-13,47,42,39,46,38,32,96,84,72,29.97,29.68,7,0,12,0.16
2013-2-14,58,45,35,38,32,26,77,62,38,30.05,29.97,9,0,9,0.02
2013-2-15,59,46,38,39,32,25,76,60,42,30.06,29.97,4,0,8,0.00
2013-2-16,41,35,29,25,13,-2,57,43,19,30.14,30.00,3,0,12,0.00
2013-2-17,52,35,23,11,4,-4,48,29,19,30.25,30.14,0,0,6,0.00
2013-2-18,62,46,31,23,18,9,58,34,19,30.27,29.97,14,2,22,0.00
2013-2-19,54,45,37,43,25,1,92,53,19,30.17,29.92,9,1,15,0.49
2013-2-20,42,36,31,16,7,-4,48,31,19,30.22,30.13,0,0,6,0.02
2013-2-21,52,39,30,36,18,7,87,45,19,30.18,29.91,3,0,6,0.77
2013-2-22,47,44,40,42,40,36,96,88,78,30.05,29.97,8,1,9,1.00
2013-2-23,54,47,43,49,44,37,96,89,75,30.00,29.81,0,0,3,0.24
2013-2-24,60,46,34,37,30,24,78,56,31,30.04,29.90,5,0,5,0.04
2013-2-25,54,46,39,39,28,22,64,49,41,30.00,29.74,8,0,8,0.00
2013-2-26,51,44,39,44,38,32,96,82,64,29.74,29.50,13,2,21,0.80
2013-2-27,55,43,37,36,32,30,82,65,41,29.86,29.71,13,2,15,0.02
2013-2-28,41,38,36,27,24,21,63,57,53,29.99,29.82,4,0,8,0.00
2013-3-1,41,37,34,29,26,22,74,63,56,29.98,29.94,3,0,3,0.00
2013-3-2,39,35,32,28,24,20,75,64,56,30.04,29.93,3,0,5,0.00
2013-3-3,45,34,30,19,15,1,61,48,19,30.07,30.02,0,0,5,0.00
2013-3-4,55,41,29,25,21,16,68,48,26,30.15,29.94,3,0,5,0.00
2013-3-5,53,47,36,52,38,23,96,71,42,29.97,29.63,9,1,15,0.69
2013-3-6,45,35,32,28,22,18,64,58,49,30.21,29.89,7,1,12,0.26
2013-3-7,51,39,32,30,24,21,65,56,42,30.30,30.19,9,1,10,0.00
2013-3-8,59,42,30,28,22,14,68,48,19,30.33,30.22,3,0,10,0.00
2013-3-9,60,49,39,31,26,23,57,43,26,30.26,30.13,5,0,10,0.00
2013-3-10,70,59,51,34,27,21,42,31,19,30.12,29.94,15,2,22,0.00
2013-3-11,61,55,42,52,45,35,96,71,37,29.97,29.74,16,2,21,0.80
2013-3-12,60,46,36,36,30,26,80,57,30,30.08,29.89,5,0,7,0.12
2013-3-13,53,43,35,30,22,6,70,47,19,30.29,30.07,6,0,11,0.00
2013-3-14,56,39,28,31,14,6,61,38,19,30.36,30.21,6,0,8,0.00
2013-3-15,73,54,36,40,34,28,81,53,27,30.23,29.91,5,0,12,0.00
2013-3-16,78,67,58,43,39,36,47,37,22,29.91,29.79,15,3,114,0.00
2013-3-17,72,65,58,49,43,39,59,46,32,29.93,29.83,8,1,13,0.00
2013-3-18,60,56,52,53,50,43,96,80,55,29.87,29.73,14,2,16,0.59
2013-3-19,63,50,38,51,30,7,96,54,19,30.10,29.85,4,0,11,0.06
2013-3-20,61,48,40,25,12,2,51,25,19,30.12,29.89,7,0,9,0.00
2013-3-21,52,38,26,23,4,-10,51,26,19,30.02,29.90,6,0,10,0.00
2013-3-22,46,40,34,24,14,-3,45,34,19,30.02,29.95,0,0,5,0.00
2013-3-23,52,44,38,42,35,24,83,71,45,29.99,29.74,3,0,7,0.14
2013-3-24,56,47,41,52,43,29,96,86,57,29.81,29.40,12,2,18,1.16
2013-3-25,40,36,33,29,22,20,65,58,52,30.04,29.65,6,0,15,0.10
2013-3-26,40,35,32,26,23,20,72,62,52,30.27,30.03,0,0,6,0.00
2013-3-27,58,42,31,27,22,7,67,47,19,30.33,30.22,0,0,6,0.00
2013-3-28,64,47,34,29,25,18,69,44,19,30.33,30.20,0,0,6,0.00
2013-3-29,56,46,39,38,32,26,75,58,34,30.31,30.18,0,0,6,0.00
2013-3-30,63,50,42,50,42,38,91,75,46,30.19,29.97,0,0,0,0.31
2013-3-31,60,56,52,58,54,50,96,93,75,29.96,29.83,8,0,8,0.75
2013-4-1,68,55,42,54,45,34,96,73,40,30.05,29.87,0,0,5,0.10
2013-4-2,59,49,40,35,24,15,55,38,19,30.21,30.04,0,0,7,0.02
2013-4-3,56,50,42,24,15,4,38,25,19,30.20,30.10,5,0,8,0.00
2013-4-4,52,43,40,41,38,20,96,83,28,30.13,29.94,0,0,4,1.22
2013-4-5,66,51,40,44,39,32,96,69,33,30.06,29.95,6,0,9,0.04
2013-4-6,62,48,42,43,37,33,85,68,47,30.15,30.06,0,0,0,0.02
2013-4-8,70,68,67,48,47,46,51,47,43,30.02,29.99,0,0,10,0.00
2013-4-9,84,68,55,55,50,46,80,53,33,30.15,29.99,8,0,14,0.00
2013-4-10,88,72,58,56,51,49,75,51,29,30.07,29.84,10,0,14,0.00
2013-4-11,79,70,61,60,55,49,96,61,44,29.87,29.61,11,2,22,1.04
2013-4-12,68,59,50,60,44,36,96,62,33,29.92,29.60,6,0,9,1.04
2013-4-13,76,61,47,43,36,25,81,46,19,30.04,29.93,3,0,6,0.00
2013-4-14,61,56,52,51,44,36,88,65,46,30.00,29.90,4,0,10,0.06
2013-4-15,78,64,53,57,53,50,96,72,42,30.06,29.89,0,0,11,0.04
2013-4-16,78,68,60,61,57,53,82,69,52,30.19,30.07,8,0,11,0.00
2013-4-17,87,68,61,65,60,52,96,78,36,30.17,30.03,3,0,14,0.22
2013-4-18,79,68,57,64,56,51,96,71,38,30.03,29.78,8,1,15,0.22
2013-4-19,72,57,45,64,47,32,96,72,51,30.08,29.65,12,2,22,1.00
2013-4-20,65,50,36,36,31,23,85,53,23,30.23,30.08,3,0,8,0.02
2013-4-21,70,56,46,39,34,25,61,45,19,30.33,30.18,6,0,9,0.00
2013-4-22,73,60,48,44,39,34,80,49,26,30.28,30.08,4,0,7,0.00
2013-4-23,75,63,51,45,41,36,64,46,32,30.18,29.99,8,1,10,0.00
2013-4-24,69,60,49,58,49,38,88,67,50,30.20,29.97,7,1,14,0.06
2013-4-25,68,53,41,38,32,19,74,50,19,30.31,30.19,4,0,6,0.02
2013-4-26,73,59,46,48,36,29,78,46,22,30.35,30.21,4,0,6,0.22
2013-4-27,54,52,50,52,50,48,96,94,81,30.33,30.07,0,0,3,1.16
2013-4-28,57,54,51,55,47,13,96,84,19,30.08,29.87,6,0,8,1.26
2013-4-29,72,61,54,60,55,52,96,82,56,30.00,29.89,3,0,5,0.02
2013-4-30,76,63,51,60,53,50,96,74,41,30.04,29.92,3,0,6,0.00
2013-5-1,74,64,55,61,56,51,96,75,57,30.14,30.04,4,0,5,0.00
2013-5-2,72,64,54,58,53,49,92,69,52,30.15,30.05,5,0,7,0.00
2013-5-3,70,62,56,57,53,50,96,74,54,30.08,29.92,6,0,7,0.02
2013-5-4,62,53,50,54,50,48,96,91,61,29.92,29.84,9,0,9,2.73
2013-5-5,59,49,44,52,46,43,96,92,64,29.85,29.72,4,0,57,1.61
2013-5-6,52,48,44,50,46,42,96,94,83,29.87,29.74,0,0,0,0.55
2013-5-7,69,55,44,55,48,43,96,80,49,29.95,29.85,0,0,0,0.31
2013-5-8,70,59,50,57,52,46,96,77,56,30.02,29.92,0,0,0,0.00
2013-5-9,81,66,53,62,53,50,96,70,35,30.07,29.98,0,0,0,0.00
2013-5-10,71,64,56,57,53,52,96,69,54,30.04,29.91,0,0,0,0.00
2013-5-11,72,65,59,59,55,48,87,70,56,29.97,29.85,0,0,0,0.00
2013-5-12,70,59,52,47,35,23,79,44,19,30.11,29.97,3,0,6,0.00
2013-5-13,73,57,44,38,32,24,68,42,19,30.22,30.10,3,0,6,0.00
2013-5-14,82,63,48,50,44,34,78,52,32,30.20,30.02,5,0,14,0.00
2013-5-15,86,72,59,56,51,48,73,49,29,30.13,29.97,6,0,6,0.00
2013-5-16,84,71,61,59,54,49,77,56,39,30.04,29.93,2,0,6,0.00
2013-5-17,77,68,62,62,57,52,86,68,51,30.06,29.97,0,0,5,0.08
2013-5-18,74,65,58,67,62,47,96,89,48,30.03,29.95,6,0,8,0.61
2013-5-19,68,62,21,66,53,-15,100,81,19,30.07,29.90,114,2,114,1.43
2013-5-20,80,64,54,70,58,16,96,84,19,30.08,29.96,4,0,4,0.02
2013-5-21,84,66,53,69,57,22,96,77,19,30.02,29.86,10,0,10,0.00
2013-5-22,80,62,53,63,56,51,96,84,50,29.93,29.82,4,0,10,1.04
2013-5-23,78,64,53,63,52,16,96,71,19,30.00,29.87,5,0,10,0.41
2013-5-24,74,63,53,49,45,38,77,55,32,30.22,30.00,7,0,8,0.00
2013-5-25,78,63,48,49,44,41,76,54,30,30.30,30.13,5,0,5,0.00
2013-5-26,80,64,50,53,48,44,80,59,34,30.24,30.12,3,0,6,0.00
2013-5-27,85,67,52,58,53,47,85,62,35,30.19,30.05,3,0,11,0.00
2013-5-28,87,73,59,58,54,52,80,56,33,30.15,30.04,6,0,114,0.00
2013-5-29,87,74,65,62,56,52,72,55,36,30.18,30.06,4,0,11,0.00
2013-5-30,83,73,64,62,58,56,78,61,46,30.19,30.06,6,0,9,0.00
2013-5-31,84,74,66,63,60,58,78,62,46,30.14,30.01,5,0,12,0.00
2013-6-1,83,73,64,68,62,58,96,69,52,30.04,29.93,13,1,13,0.16
2013-6-2,76,67,60,69,56,22,96,74,19,29.95,29.84,2,0,10,0.35
2013-6-3,77,66,55,62,56,54,96,74,51,29.96,29.87,0,0,5,0.06
2013-6-4,85,67,53,60,54,49,86,66,38,30.01,29.93,5,0,5,0.00
2013-6-5,76,62,56,63,57,53,96,86,64,30.00,29.88,5,0,8,0.88
2013-6-6,76,66,59,64,60,58,100,83,62,29.90,29.72,114,17,114,0.18
2013-6-7,77,64,57,64,59,56,100,84,59,29.84,29.69,114,4,114,0.49
2013-6-8,77,70,59,62,60,56,100,73,54,30.02,29.84,114,20,114,0.06
2013-6-9,78,63,54,65,57,50,92,83,54,30.06,29.92,5,0,11,0.77
2013-6-10,80,75,68,65,60,57,100,61,48,29.96,29.86,114,10,114,0.04
2013-6-11,84,70,55,68,61,51,100,73,52,30.01,29.92,114,2,114,0.18
2013-6-12,92,75,57,69,61,42,79,63,19,30.05,29.93,0,0,6,0.00
2013-6-13,87,76,69,68,62,58,70,62,53,29.93,29.74,6,1,8,0.00
2013-6-14,85,71,58,59,54,50,75,56,35,29.99,29.86,5,0,7,0.00
2013-6-15,87,76,60,60,56,51,72,53,38,30.09,30.00,0,0,9,0.00
2013-6-16,82,67,41,65,52,2,82,62,19,30.10,29.97,0,0,14,0.16
2013-6-17,87,65,43,40,22,4,100,24,19,30.02,29.90,114,6,114,0.18
2013-6-18,84,63,38,61,24,0,100,26,19,29.92,29.84,114,3,114,0.16
2013-6-19,86,61,35,66,28,-3,100,34,19,30.04,29.92,114,4,114,0.16
2013-6-20,89,62,35,63,22,-3,100,26,19,30.16,30.04,114,4,114,0.04
2013-6-21,87,72,44,40,28,5,100,27,19,30.22,30.11,114,11,114,0.04
2013-6-22,102,74,40,52,30,2,100,22,19,30.20,30.06,114,4,114,0.00
2013-6-23,133,81,40,77,35,1,19,19,19,30.17,30.05,0,0,6,0.00
2013-6-24,149,88,75,90,42,0,100,37,19,30.19,30.05,3,0,114,0.00
2013-6-25,150,98,88,93,51,0,100,78,19,30.13,29.98,3,0,6,0.00
2013-6-26,144,110,92,86,59,0,100,61,19,30.04,29.87,114,2,114,0.00
2013-6-27,125,100,82,71,50,36,100,41,19,29.94,29.79,5,0,14,0.22
2013-6-28,146,98,70,88,49,26,100,50,19,29.83,29.66,114,4,114,0.22
2013-6-29,94,78,48,100,56,8,100,43,19,29.71,29.64,114,13,114,0.10
2013-6-30,90,64,9,100,38,-25,100,24,19,29.79,29.67,6,0,6,0.22
2013-7-1,92,78,77,44,33,32,100,82,19,29.83,29.76,114,2,114,0.37
2013-7-2,58,43,32,16,4,-6,19,19,19,30.02,29.96,0,0,114,0.26
2013-7-3,65,60,53,100,37,12,100,42,19,30.12,30.02,114,32,114,0.00
2013-7-4,65,58,55,55,21,14,100,76,19,30.12,30.03,114,76,114,0.02
2013-7-5,56,56,55,56,32,14,100,100,100,30.15,30.07,114,114,114,0.02
2013-7-6,56,56,56,56,56,56,100,100,100,30.11,30.08,114,114,114,0.00
2013-7-7,56,56,56,56,56,56,100,100,100,30.14,30.07,114,114,114,0.00
2013-7-8,56,56,56,56,56,56,100,100,100,30.18,30.07,114,114,114,0.00
2013-7-9,56,56,56,56,56,56,100,100,100,30.14,30.03,114,114,114,0.00
2013-7-10,56,56,56,56,56,56,100,100,100,30.06,29.94,114,114,114,0.00
2013-7-11,56,56,56,56,56,56,100,100,100,29.97,29.85,114,114,114,0.00
2013-7-12,56,56,56,56,56,56,100,100,100,29.95,29.88,114,114,114,0.00
2013-7-13,56,56,56,56,56,56,100,100,100,30.05,29.93,114,114,114,0.00
2013-7-14,56,56,56,56,56,56,100,100,100,30.16,30.03,114,114,114,0.00
2013-7-15,56,56,56,56,56,56,100,100,100,30.25,30.17,114,114,114,0.00
2013-7-16,84,67,56,75,64,56,100,93,74,30.29,29.96,114,55,114,0.06
2013-7-17,95,82,71,75,71,69,95,72,45,30.00,29.86,0,0,0,0.35
2013-7-18,86,85,76,72,71,58,62,61,53,29.94,29.76,0,0,0,0.00
2013-7-19,76,76,76,58,58,58,53,53,53,29.81,29.81,0,0,0,0.00
2013-7-20,76,76,76,58,58,58,53,53,53,29.81,29.81,0,0,0,0.00
2013-7-26,85,77,72,70,67,66,81,72,57,29.95,29.91,3,0,5,0.00
2013-7-27,87,76,70,72,67,64,90,75,51,29.94,29.83,10,1,11,0.00
2013-7-28,89,76,68,69,65,60,89,70,47,30.02,29.87,8,1,8,0.00
2013-7-29,82,58,46,61,51,42,86,78,43,30.14,30.01,8,1,8,0.00
2013-7-30,46,46,46,42,42,42,86,86,86,30.17,30.07,5,1,5,0.00
2013-8-9,83,83,83,78,78,78,84,84,84,29.86,29.86,0,0,0,0.00
2013-8-14,72,69,66,63,61,58,79,75,73,29.91,29.86,3,0,3,0.00
2013-8-15,77,69,63,70,62,58,85,77,66,29.95,29.88,4,0,4,0.00
2013-8-16,73,68,64,65,63,60,91,83,72,29.97,29.91,5,0,5,0.00
2013-8-17,73,68,66,67,65,63,97,90,78,30.00,29.94,3,0,3,0.02
2013-8-18,75,69,65,71,68,65,99,95,80,30.05,29.97,6,0,6,0.37
2013-8-19,78,71,68,73,69,67,99,95,80,30.02,29.91,3,0,3,0.78
2013-8-20,84,75,68,76,72,68,99,90,71,30.04,29.94,4,0,4,0.00
2013-8-21,79,74,70,74,72,70,99,95,81,30.07,29.98,6,0,6,0.63
2013-8-22,85,74,71,77,72,70,99,94,70,30.04,29.91,8,0,8,0.11
2013-8-23,88,76,69,76,71,68,100,88,56,29.96,29.85,4,0,4,0.01
2013-8-24,85,74,67,74,70,66,99,88,66,30.10,29.93,8,0,8,0.11
2013-8-25,84,74,65,70,66,62,98,79,52,30.23,30.10,5,0,5,0.00
2013-8-26,84,73,63,69,65,61,98,78,51,30.19,30.01,4,0,4,0.00
2013-8-27,88,74,65,72,68,64,97,82,53,30.04,29.91,4,0,4,0.00
2013-8-28,88,77,68,76,72,68,99,86,60,29.94,29.85,4,0,4,0.00
2013-8-29,91,79,70,78,73,69,99,83,59,29.90,29.80,2,0,2,0.00
2013-8-30,87,76,72,79,74,72,99,92,69,29.87,29.78,5,0,5,0.64
2013-8-31,91,78,72,79,74,71,99,89,58,29.83,29.70,6,0,6,0.04
2013-9-1,86,75,71,78,73,63,99,94,55,29.80,29.71,7,0,7,0.22
2013-9-2,83,76,72,76,72,70,99,89,69,29.83,29.71,5,0,5,0.04
2013-9-3,88,78,70,76,71,64,98,79,50,29.87,29.73,5,0,5,0.00
2013-9-4,86,73,64,70,66,62,97,78,48,29.99,29.86,4,0,4,0.00
2013-9-5,84,72,63,70,64,59,96,79,49,30.03,29.95,6,0,6,0.00
2013-9-6,87,73,64,70,66,62,96,80,49,30.04,29.92,4,0,4,0.00
2013-9-7,88,75,65,72,69,64,99,83,54,30.00,29.86,8,0,8,0.00
2013-9-8,89,76,67,74,71,67,99,84,56,29.89,29.80,3,0,3,0.00
2013-9-9,89,78,71,77,72,70,98,86,56,29.97,29.86,7,0,7,0.00
2013-9-10,89,78,70,74,71,67,99,80,50,30.08,29.97,5,0,5,0.00
2013-9-11,88,77,70,74,70,63,99,81,46,30.09,29.96,2,0,2,0.00
2013-9-12,89,77,70,74,71,67,97,82,53,29.97,29.77,7,0,7,0.00
2013-9-13,82,73,63,68,61,52,96,70,41,29.84,29.75,6,0,6,0.00
2013-9-14,78,64,56,60,53,50,93,70,49,29.94,29.83,7,1,7,0.00
2013-9-15,83,68,57,68,61,56,96,81,51,30.04,29.94,2,0,8,0.00
2013-9-16,83,72,63,67,64,60,99,78,48,30.03,29.96,2,0,4,0.00
2013-9-17,81,72,66,67,64,60,86,74,60,30.08,29.98,5,1,10,0.00
2013-9-18,79,71,65,65,61,59,89,73,59,30.09,29.98,5,1,8,0.00
2013-9-19,83,70,61,68,64,60,96,81,58,30.06,29.91,1,0,5,0.00
2013-9-20,85,74,64,68,65,63,98,77,47,29.94,29.74,5,0,6,0.00
2013-9-21,75,68,60,69,65,58,98,92,76,29.75,29.61,5,0,9,1.85
2013-9-22,97,65,54,61,56,53,97,76,30,29.78,29.70,3,0,6,0.03
2013-9-23,79,67,56,64,59,55,94,77,53,29.89,29.78,3,0,5,0.00
2013-9-24,70,66,61,65,63,59,98,90,79,29.90,29.77,2,0,6,0.00
2013-9-25,68,66,65,66,65,63,98,96,90,29.76,29.70,2,0,3,0.73
2013-9-26,78,68,64,68,64,61,98,87,61,29.88,29.75,2,0,4,0.00
2013-9-27,78,67,58,65,61,58,99,83,51,30.02,29.89,1,0,3,0.00
2013-9-28,76,67,59,63,60,58,98,81,57,30.09,29.96,2,0,6,0.00
2013-9-29,75,65,57,62,58,55,95,79,57,30.02,29.89,7,0,7,0.01
2013-9-30,75,65,58,62,59,56,98,83,54,29.96,29.86,2,0,6,0.00
2013-10-1,79,67,59,67,62,58,98,85,62,30.03,29.92,1,0,2,0.00
2013-10-2,82,71,63,69,66,63,99,86,61,30.04,29.92,0,0,1,0.00
2013-10-3,83,72,65,70,66,63,98,82,53,30.00,29.91,1,0,7,0.00
2013-10-4,80,70,62,70,66,62,99,88,67,30.03,29.94,0,0,2,0.00
2013-10-5,85,73,65,70,67,65,99,84,53,29.99,29.86,3,0,6,0.00
2013-10-6,81,70,64,69,66,62,97,87,65,29.87,29.68,4,0,11,0.00
2013-10-7,69,61,55,56,52,50,96,76,52,29.93,29.77,4,1,7,0.04
2013-10-8,72,62,55,59,52,47,89,70,53,30.01,29.92,5,1,11,0.00
2013-10-9,60,59,58,57,57,57,97,94,91,30.01,30.00,0,0,0,0.00
2013-10-13,80,72,63,62,60,58,93,67,48,30.09,30.01,4,1,7,0.00
2013-10-14,79,68,59,65,62,58,98,80,58,30.09,29.96,2,0,4,0.00
2013-10-15,70,66,62,62,60,59,93,81,68,30.02,29.91,7,1,8,0.00
2013-10-16,71,64,59,63,60,58,96,87,72,29.93,29.82,2,0,9,0.02
2013-10-17,73,64,53,67,61,51,98,90,73,29.88,29.75,2,0,6,0.18
2013-10-18,66,56,48,53,50,47,97,81,54,29.95,29.84,2,0,7,0.00
2013-10-19,66,56,50,55,50,45,86,80,69,29.91,29.82,2,0,6,0.00
2013-10-20,63,51,40,46,42,38,97,76,41,29.99,29.91,3,0,7,0.00
2013-10-21,68,59,46,52,48,45,98,69,46,30.02,29.88,3,0,4,0.00
2013-10-22,66,59,53,54,52,48,93,78,61,29.91,29.74,2,0,3,0.00
2013-10-23,56,50,40,51,42,35,92,74,49,29.98,29.72,3,0,13,0.00
2013-10-24,60,47,39,44,39,36,94,76,51,30.16,30.00,6,0,6,0.00
2013-10-25,51,42,34,34,30,26,83,65,43,30.35,30.18,4,1,8,0.00
2013-10-26,59,44,30,36,33,29,97,68,41,30.25,30.03,4,0,8,0.00
2013-10-27,62,55,49,53,46,37,88,71,60,30.04,29.97,2,0,8,0.00
2013-10-28,60,56,50,57,54,50,98,93,86,30.15,30.00,2,0,3,0.00
2013-10-29,70,60,55,61,57,54,99,91,70,30.21,30.09,1,0,3,0.00
2013-10-30,78,65,56,62,58,56,98,80,48,30.16,30.00,3,0,6,0.00
2013-10-31,72,65,60,65,60,56,92,83,74,30.01,29.61,5,1,13,0.04
2013-11-1,71,64,52,65,55,48,96,76,49,29.71,29.57,5,1,12,0.47
2013-11-2,66,54,46,50,45,39,98,73,40,29.99,29.70,4,0,7,0.00
2013-11-3,59,50,42,43,40,38,89,72,48,30.18,29.99,3,0,6,0.00
2013-11-4,64,51,40,45,40,38,97,71,40,30.30,30.18,6,0,17,0.00
2013-11-5,64,53,45,47,41,38,80,64,46,30.33,30.19,4,0,5,0.00
2013-11-6,72,60,50,59,53,42,95,77,62,30.19,29.95,7,1,14,0.01
2013-11-7,63,53,42,60,44,32,98,74,42,30.17,29.90,5,1,7,0.48
2013-11-8,57,45,36,36,29,23,84,56,28,30.29,30.16,7,1,8,0.00
2013-11-9,56,45,34,38,35,32,96,71,44,30.23,30.13,5,0,9,0.00
2013-11-10,69,54,43,45,39,31,94,60,27,30.21,30.11,3,0,6,0.00
2013-11-11,67,52,40,42,32,26,69,49,25,30.21,30.04,2,0,6,0.00
2013-11-12,53,44,31,43,29,14,76,56,42,30.43,30.03,9,2,14,0.00
2013-11-13,46,35,28,27,20,17,80,54,34,30.55,30.37,6,1,10,0.00
2013-11-14,58,39,27,33,26,19,97,66,25,30.40,30.19,2,0,3,0.00
2013-11-15,49,42,37,43,38,28,96,84,54,30.18,30.03,1,0,4,0.25
2013-11-16,57,49,44,55,48,43,98,96,93,30.11,30.00,2,0,3,0.00
2013-11-17,67,62,58,66,60,56,98,94,86,29.99,29.74,6,1,10,0.64
2013-11-18,67,59,48,66,43,34,96,57,33,30.03,29.75,4,1,12,0.14
2013-11-19,53,46,41,33,29,26,62,51,36,30.11,30.02,11,2,11,0.00
2013-11-20,60,47,34,37,33,31,94,62,37,30.20,30.06,2,0,7,0.00
2013-11-21,63,54,49,52,43,34,84,67,55,30.24,30.14,4,0,6,0.00
2013-11-22,58,55,52,56,54,51,98,95,86,30.20,30.08,5,0,6,0.14
2013-11-23,53,47,35,51,39,21,94,75,51,30.28,30.09,3,1,7,0.00
2013-11-24,38,31,24,22,14,8,67,51,32,30.45,30.28,5,1,13,0.00
2013-11-25,43,34,28,32,19,11,94,56,27,30.38,30.11,2,0,6,0.35
2013-11-26,43,37,33,42,36,32,98,96,89,30.11,29.66,6,1,10,2.71
2013-11-27,38,32,25,35,25,17,90,73,54,30.21,29.73,4,1,13,0.00
2013-11-28,46,31,21,29,21,15,87,67,40,30.38,30.22,4,0,5,0.00
2013-11-29,51,37,27,31,28,26,98,72,39,30.47,30.37,3,0,7,0.00
2013-11-30,55,42,30,32,29,27,97,63,34,30.43,30.21,3,1,9,0.00
2013-12-1,55,44,33,38,32,26,79,63,49,30.21,29.90,4,0,7,0.00
2013-12-2,48,46,44,48,44,38,98,93,68,29.90,29.70,3,0,3,0.17
2013-12-3,52,50,48,52,50,48,99,98,98,29.76,29.71,0,0,2,0.02
2013-12-4,72,60,52,63,57,52,99,90,68,29.85,29.74,11,2,14,0.01
2013-12-5,73,68,64,67,65,62,95,90,80,29.89,29.78,6,2,13,0.00
2013-12-6,69,53,39,67,52,37,97,95,92,30.06,29.74,4,1,9,1.78
2013-12-7,40,38,36,38,35,33,95,89,83,30.29,30.07,4,1,15,0.00
2013-12-8,47,40,35,46,40,34,99,97,92,30.23,29.99,3,1,7,1.17
2013-12-9,54,46,40,50,45,38,98,94,85,30.05,29.94,4,0,7,0.45
2013-12-10,43,37,29,40,32,26,97,84,61,30.27,29.90,5,0,6,0.39
2013-12-11,50,36,25,30,27,24,97,73,44,30.38,30.25,2,0,5,0.00
2013-12-12,43,33,25,27,21,17,80,63,36,30.44,30.31,4,1,7,0.00
2013-12-13,43,34,24,30,25,20,94,71,47,30.33,30.08,1,0,2,0.00
2013-12-15,36,34,32,31,30,28,89,82,77,30.13,29.99,1,0,6,0.00
2013-12-16,53,40,30,38,32,28,93,74,50,30.17,30.04,6,1,8,0.00
2013-12-17,59,48,41,40,34,29,71,58,46,30.14,29.94,5,2,9,0.00
2013-12-18,51,39,29,29,25,21,84,59,30,30.26,30.14,2,0,6,0.00
2013-12-19,61,42,31,35,29,24,95,65,27,30.22,30.04,5,0,7,0.00
2013-12-20,62,53,43,52,40,28,79,62,48,30.07,29.95,5,1,12,0.00
2013-12-21,68,61,55,66,58,52,99,91,80,29.94,29.69,14,2,16,0.16
2013-12-22,70,58,55,66,57,54,97,94,88,29.93,29.67,12,2,19,1.84
2013-12-23,54,43,32,54,39,27,98,86,76,30.25,29.92,5,1,12,0.02
2013-12-24,37,31,27,27,22,15,86,69,43,30.40,30.25,5,0,7,0.00
2013-12-25,47,33,22,27,22,17,84,65,43,30.38,30.23,3,0,4,0.00
2013-12-26,50,39,29,33,28,23,90,66,48,30.30,30.20,4,0,5,0.00
2013-12-27,53,38,29,33,27,19,94,68,27,30.37,30.25,2,0,3,0.00
2013-12-28,40,36,31,37,33,29,97,91,77,30.29,29.88,2,0,3,0.88
2013-12-29,48,42,38,44,40,37,98,94,84,29.95,29.78,5,0,5,0.50
2013-12-30,42,38,36,41,35,32,97,86,75,30.14,29.94,2,0,4,0.00
2013-12-31,42,34,29,33,28,26,94,80,57,30.36,30.12,3,0,7,0.00
2014-1-1,51,36,28,34,31,27,98,82,50,30.26,30.00,2,0,6,0.00
2014-1-2,46,37,22,45,33,16,98,86,74,30.12,29.70,6,2,11,0.32